Location: Palmerston North
(40.3500°S, 175.6170°E)
Time: 07:43:20
(UTC+13:00)

ISS - Pass Details

Date: 26 October 2019
Orbit: 412 x 421 km, 51.6° (Epoch: 17 November)

Event Time Altitude Azimuth Distance (km) Brightness Sun altitude
Rises 23:17:03 0° 228° (SW) 2,389 1.1 -31.9°
Reaches altitude 10° 23:19:32 10° 211° (SSW) 1,523 -0.1 -32.2°
Enters shadow 23:19:46 11° 208° (SSW) 1,454 -0.2 -32.2°
